User: anonymous   Login
Location: Larrial
(48.2758°N, 4.5331°W)
Time: 15:51:52
(UTC+00:00)
Language:

CAS-6 - Orbit

View from above orbital plane
View from above orbital plane
View from above satellite
View from above satellite

Ground track
Ground track

The orbit data is extracted from the following two-line orbital elements,

1 44881U 19093C   21332.18720060  .00000156  00000-0  26590-4 0  9990
2 44881  97.9127  49.1312 0016299 118.2745 242.0129 14.81514865104971
Epoch (UTC): 28 November 2021 04:29:34
Eccentricity: 0.0016299
inclination: 97.9127°
perigee height: 613 km
apogee height: 636 km
right ascension of ascending node: 49.1312°
argument of perigee: 118.2745°
revolutions per day: 14.81514865
mean anomaly at epoch: 242.0129°
orbit number at epoch: 10497

The dashed part of the orbit path shows where the satellite is in the earth's shadow,  

DLR